Location: Newark
(33.6439°N, 114.9881°W)
Time: 01:32:51
(UTC+00:00)

Vanguard 1 - All Passes

Search period start: 20 August 2019 00:00
Search period end: 30 August 2019 00:00
Orbit: 655 x 3829 km, 34.2° (Epoch: 17 August)

Date Brightness Start Highest point End Pass type
(mag) Time Alt. Az. Time Alt. Az. Time Alt. Az.
20 Aug - 02:14:31 10° WSW 02:20:43 22° SSW 02:29:51 10° SSE daylight
20 Aug - 17:14:24 10° SSW 17:19:37 27° SSE 17:23:35 10° E daylight
20 Aug - 19:34:49 10° WSW 19:39:29 83° S 19:44:09 10° E daylight
20 Aug - 21:54:58 10° W 21:59:33 86° S 22:06:08 10° ESE daylight
21 Aug - 00:14:34 10° W 00:20:05 40° SSW 00:29:13 10° SE daylight
21 Aug - 02:37:17 10° WSW 02:42:10 15° SSW 02:48:30 10° S visible
21 Aug - 15:17:28 10° S 15:19:51 11° SSE 15:21:56 10° SE daylight
21 Aug - 17:34:57 10° SW 17:40:37 39° SSE 17:44:52 10° E daylight
21 Aug - 19:55:55 10° W 20:00:31 86° N 20:05:16 10° E daylight
21 Aug - 22:15:58 10° W 22:20:35 73° SSW 22:27:26 10° ESE daylight
22 Aug - 00:35:53 10° W 00:41:16 30° SSW 00:49:45 10° SSE daylight
22 Aug - 15:35:51 10° SSW 15:41:05 18° SSE 15:45:02 10° ESE daylight
22 Aug - 17:55:49 10° WSW 18:01:37 54° SSE 18:05:59 10° E daylight
22 Aug - 20:17:02 10° W 20:21:33 82° N 20:26:26 10° E daylight
22 Aug - 22:36:57 10° W 22:41:37 57° SSW 22:48:37 10° ESE daylight
23 Aug - 00:57:32 10° WSW 01:02:32 22° SSW 01:09:45 10° SSE daylight
23 Aug - 15:55:39 10° SSW 16:02:16 26° SSE 16:06:50 10° E daylight
23 Aug - 18:16:53 10° WSW 18:22:36 71° SSE 18:27:01 10° E daylight
23 Aug - 20:38:07 10° W 20:42:35 86° N 20:47:39 10° E daylight
23 Aug - 22:58:01 10° W 23:02:39 43° SSW 23:09:35 10° SE daylight
24 Aug - 01:19:55 10° WSW 01:23:50 15° SSW 01:28:51 10° S daylight
24 Aug - 13:58:31 10° S 14:01:48 12° SSE 14:04:37 10° SE daylight
24 Aug - 16:16:03 10° SW 16:23:24 36° SSE 16:28:12 10° E daylight
24 Aug - 18:38:05 10° WSW 18:43:37 86° S 18:48:02 10° E daylight
24 Aug - 20:59:10 10° W 21:03:36 83° S 21:08:50 10° ESE daylight
24 Aug - 23:19:14 10° W 23:23:43 31° SSW 23:30:15 10° SE daylight
25 Aug - 14:16:27 10° SSW 14:23:11 18° SSE 14:28:04 10° ESE daylight
25 Aug - 16:36:51 10° SW 16:44:29 48° SSE 16:49:21 10° E daylight
25 Aug - 18:59:20 10° W 19:04:39 85° N 19:09:05 10° E daylight
25 Aug - 21:20:13 10° W 21:24:36 66° SSW 21:29:58 10° ESE daylight
25 Aug - 23:40:44 10° WSW 23:44:50 22° SSW 23:50:28 10° SSE daylight
26 Aug - 14:35:57 10° SSW 14:44:30 25° SSE 14:50:06 10° ESE daylight
26 Aug - 16:57:56 10° WSW 17:05:32 62° SSE 17:10:23 10° E daylight
26 Aug - 19:20:34 10° W 19:25:42 82° N 19:30:08 10° E daylight
26 Aug - 21:41:17 10° W 21:45:35 49° SSW 21:50:58 10° SE daylight
27 Aug - 00:02:52 10° WSW 00:06:00 15° SSW 00:09:53 10° S daylight
27 Aug - 12:39:10 10° SSE 12:43:14 12° SSE 12:46:41 10° SE visible
27 Aug - 14:56:10 10° SW 15:05:46 34° SSE 15:11:37 10° E daylight
27 Aug - 17:19:12 10° WSW 17:26:35 77° SSE 17:31:21 10° E daylight
27 Aug - 19:41:46 10° W 19:46:43 88° N 19:51:13 10° E daylight
27 Aug - 22:02:28 10° W 22:06:33 34° SSW 22:11:42 10° SE daylight
28 Aug - 12:56:23 10° S 13:04:44 18° SSE 13:10:47 10° ESE daylight
28 Aug - 15:16:51 10° SW 15:26:58 45° SSE 15:32:50 10° E daylight
28 Aug - 17:40:35 10° W 17:47:38 89° SSE 17:52:19 10° E daylight
28 Aug - 20:02:56 10° W 20:07:44 79° S 20:12:17 10° ESE daylight
28 Aug - 22:23:51 10° W 22:27:32 24° SSW 22:32:06 10° SSE daylight
29 Aug - 13:15:29 10° SSW 13:26:11 25° SSE 13:33:07 10° ESE daylight
29 Aug - 15:37:53 10° SW 15:48:06 57° SSE 15:53:54 10° E daylight
29 Aug - 18:01:59 10° W 18:08:42 84° N 18:13:18 10° E daylight
29 Aug - 20:24:05 10° W 20:28:42 61° SSW 20:33:15 10° ESE daylight
29 Aug - 22:45:43 10° WSW 22:48:33 15° SSW 22:51:51 10° S daylight
